Location: Gellin
(53.4498°N, 14.3207°E)
Time: 02:03:30
(UTC+00:00)

USA 307 - Pass Details

Date: 03 March 2021
Orbit: 567 x 577 km, 54.0° (Epoch: 10 April)

Event Time Altitude Azimuth Distance (km) Brightness Sun altitude
Rises 19:57:05 0° 285° (WNW) 2,788 7.5 -28.4°
Reaches altitude 10° 19:59:22 10° 283° (WNW) 1,886 6.4 -28.7°
Enters shadow 20:01:53 34° 275° (W) 953 4.4 -29.1°
